STARLINK-35895, 66354

Orbit data source: Space-Track

STARLINK-35895, 66354 is a payload satellite owned by SpaceX/Seattle (US) in LEO that was launched on Thu, 06 Nov 2025 UTC via an FALCON 9 launch vehicle from the Air Force Western Test Range (AFWTR). Payload-class satellites include a variety of spacecraft equipped with specific instruments for various scientific and technological missions. These include communications satellites like Starlink; space stations such as the ISS; scientific satellites like the Hubble; Earth observation satellites from companies like Planet Labs, Umbra, and HawkEye 360; GPS; miniature CubeSats for education and research; and military/defense satellites.

Loading next visibility...
Identifier
66354, 2025-254G
Orbit
LEO
Country
Flag of USUS
Related business
Manufacturer
SpaceX/Seattle
Mission
Operational Commercial Communications
Bus & Motor
STARLINK V2MO, Unknown motor
Mass
575 kg wet, ~530 kg dry
Launch date (UTC)
2025-11-06 (7 months ago)
Launch vehicle
FALCON 9
Launch site
Air Force Western Test Range (AFWTR)
Object type
Payload
Rocket body
Debris
Shape & HBR
Box + 2 Pan, 17.7 m
Radar Cross Section
36.964 m², Large (>1 m²)

Expand to show TLE details & history
Last TLE update: 1 day ago

TLE from 1 day ago
0 STARLINK-35895
1 66354U 25254G   26170.85570823  .00022082  00000-0  75519-3 0  9990
2 66354  53.1604 118.2046 0001481 100.3016 259.8152 15.30211572 34615
Epoch: 2026-06-19T20:32Z
TLE epoch observation values (Epoch: 2026-06-19T20:32:13.191Z)
Latitude
0.00002°
Longitude
-97.92904°
Altitude
476.26 km
Speed
7.629 km/s
True Right ascension
07h 52m 49s
True Declination
0° 00' 00"
Sunlit
Object was in daylight at epoch
Visualization orbit readout
Latitude
Unknown
Longitude
Unknown
Altitude
Unknown
Speed
Unknown
Apparent Right ascension
Unknown
Apparent Declination
Unknown
Sunlit
N/A
Visualization observer readout
Local Sidereal Time
07:18:13
Azimuth
Unknown
Elevation
Unknown
Doppler factor
Unknown
Orbital elements
Apogee altitude
476.452 km
Perigee altitude
474.422 km
Semi-major axis
6,853.574 km
Eccentricity
0.00015
Inclination
53.1604°
RAAN
118.2046°
Arg. of periapsis
100.3016°
True anomaly
259.7985°
Mean anomaly
259.8152°
Eccentric anomaly
259.80685°
Mean motion
3.82532 °/min
Orbital period
94.11 mins
BSTAR
0.00075519
Loading maneuver chart data...
Computing Atmospheric mass density...
Loading historical data...
Loading historical data...
Loading historical data...
Loading historical data...
Loading historical data...
Loading historical data...
Loading historical data...

Documentation

Showing up to 5 results
|